Montoursville, PA

5:38 PM EST on February 26, 2017 (GMT -0500)
Williamsport Rgnl

Weather History for KIPT - February, 2013

Change the Weather History Date:

Sunday, February 3, 2013

  Actual Average Record
Temperature  
Mean Temperature 24 °F 28 °F  
Max Temperature 28 °F 35 °F 60 °F (1991)
Min Temperature 19 °F 20 °F -6 °F (1971)
Degree Days  
Heating Degree Days 41 37  
Month to date heating degree days 131 112  
Since 1 July heating degree days 3299 3591  
Cooling Degree Days 0 0  
Month to date cooling degree days 0 0  
Year to date cooling degree days 0 0  
Moisture  
Dew Point 18 °F    
Average Humidity 76    
Maximum Humidity 84    
Minimum Humidity 68    
Precipitation  
Precipitation T in 0.08 in 1.24 in (1972)
Month to date precipitation 0.01 0.26  
Year to date precipitation 2.65 2.96  
Snow  
Snow T in 0.30 in 7.90 in (2004)
Month to date snowfall 0.1 1.0  
Since 1 July snowfall 23.1 20.2  
Snow Depth T in    
Sea Level Pressure  
Sea Level Pressure 29.86 in    
Wind  
Wind Speed 4 mph (SSW)    
Max Wind Speed 21 mph    
Max Gust Speed 28 mph    
Visibility 7 miles    
Events Snow    
T = Trace of Precipitation, MM = Missing Value Source: NWS Daily Summary

Daily Weather History Graph

Daily Weather History Graph

Search for Another Location

Airport or City:

Trip Planner

Search our weather history database for the weather conditions in past years. The results will help you decide how hot, cold, wet, or windy it might be!

Date:

Astronomy

Feb. 03, 2013 Rise Set
Actual Time 7:16 AM EST 5:27 PM EST
Civil Twilight 6:47 AM EST 5:56 PM EST
Nautical Twilight 6:14 AM EST 6:29 PM EST
Astronomical Twilight 5:42 AM EST 7:01 PM EST
Moon 12:41 AM EST (2/3) 11:02 AM EST (2/3)
Length of Visible Light 11h 08m
Length of Day
10h 10m
Waning Gibbous, 49% of the Moon is Illuminated
Feb 3
Waning Gibbous
Feb 10
New
Feb 17
First Quarter
Feb 25
Full
Mar 4
Last Quarter

Hourly Weather History & Observations

Time (EST) Temp. Windchill Dew Point Humidity Pressure Visibility Wind Dir Wind Speed Gust Speed Precip Events Conditions
12:54 AM 21.0 °F 16.2 °F 17.1 °F 85% 30.00 in 7.0 mi East 3.5 mph - 0.00 in Snow Light Snow
1:54 AM 21.0 °F - 17.1 °F 85% 29.99 in 8.0 mi Calm Calm - 0.00 in   Overcast
2:54 AM 21.0 °F - 17.1 °F 85% 29.98 in 7.0 mi Calm Calm - 0.00 in   Overcast
3:54 AM 21.0 °F - 17.1 °F 85% 29.95 in 8.0 mi Calm Calm - N/A   Overcast
4:54 AM 19.9 °F - 17.1 °F 89% 29.94 in 9.0 mi Calm Calm - N/A   Overcast
5:54 AM 19.9 °F - 17.1 °F 89% 29.92 in 9.0 mi Calm Calm - N/A   Overcast
6:54 AM 19.0 °F - 16.0 °F 88% 29.92 in 10.0 mi Calm Calm - N/A   Overcast
7:09 AM 19.4 °F - 15.8 °F 86% 29.90 in 10.0 mi Calm Calm - N/A   Overcast
7:51 AM 19.4 °F - 15.8 °F 86% 29.90 in 7.0 mi Calm Calm - N/A   Overcast
7:54 AM 19.0 °F - 16.0 °F 88% 29.93 in 7.0 mi Calm Calm - N/A   Overcast
8:34 AM 19.4 °F - 15.8 °F 86% 29.91 in 9.0 mi Calm Calm - N/A   Overcast
8:54 AM 21.0 °F - 17.1 °F 85% 29.93 in 9.0 mi Calm Calm - N/A   Overcast
9:54 AM 23.0 °F - 18.0 °F 81% 29.93 in 7.0 mi Calm Calm - N/A   Overcast
10:54 AM 24.1 °F - 18.0 °F 77% 29.91 in 9.0 mi Calm Calm - N/A   Overcast
11:31 AM 24.8 °F - 17.6 °F 74% 29.87 in 10.0 mi Calm Calm - N/A   Overcast
11:54 AM 25.0 °F 20.7 °F 18.0 °F 75% 29.88 in 10.0 mi ESE 3.5 mph - N/A   Mostly Cloudy
12:16 PM 26.6 °F - 17.6 °F 69% 29.84 in 10.0 mi Calm Calm - N/A   Mostly Cloudy
12:28 PM 26.6 °F 22.6 °F 17.6 °F 69% 29.83 in 10.0 mi Variable 3.5 mph - N/A   Mostly Cloudy
12:54 PM 27.0 °F - 18.0 °F 69% 29.84 in 10.0 mi Calm Calm - N/A   Mostly Cloudy
1:01 PM 26.6 °F 21.2 °F 17.6 °F 69% 29.81 in 10.0 mi Variable 4.6 mph - N/A   Scattered Clouds
1:31 PM 26.6 °F 21.2 °F 17.6 °F 69% 29.80 in 10.0 mi SE 4.6 mph - N/A   Overcast
1:54 PM 27.0 °F 21.6 °F 19.0 °F 72% 29.82 in 4.0 mi SE 4.6 mph - 0.00 in Snow Light Snow
1:59 PM 26.6 °F 21.2 °F 19.4 °F 74% 29.79 in 2.5 mi Variable 4.6 mph - 0.00 in Snow Light Snow
2:15 PM 26.6 °F 19.1 °F 19.4 °F 74% 29.79 in 1.8 mi South 6.9 mph - 0.00 in Snow Light Snow
2:34 PM 26.6 °F - 21.2 °F 80% 29.78 in 2.5 mi Calm Calm - 0.00 in Snow Light Snow
2:54 PM 27.0 °F - 19.9 °F 75% 29.80 in 2.5 mi Calm Calm - 0.00 in Snow Light Snow
3:27 PM 26.6 °F - 21.2 °F 80% 29.78 in 1.8 mi Calm Calm - 0.00 in Snow Light Snow
3:45 PM 26.6 °F - 21.2 °F 80% 29.78 in 2.5 mi Calm Calm - 0.00 in Snow Light Snow
3:48 PM 26.6 °F - 21.2 °F 80% 29.78 in 3.0 mi Calm Calm - 0.00 in Snow Light Snow
3:54 PM 28.0 °F - 21.0 °F 75% 29.80 in 4.0 mi Calm Calm - 0.00 in Snow Light Snow
4:54 PM 27.0 °F 23.0 °F 21.0 °F 78% 29.79 in 5.0 mi SSW 3.5 mph - 0.00 in Snow Light Snow
5:25 PM 26.6 °F - 21.2 °F 80% 29.77 in 5.0 mi Calm Calm - 0.00 in Snow Light Snow
5:34 PM 26.6 °F - 21.2 °F 80% 29.77 in 4.0 mi Calm Calm - 0.00 in Snow Light Snow
5:54 PM 27.0 °F - 21.0 °F 78% 29.80 in 8.0 mi Calm Calm - 0.00 in Snow Light Snow
6:54 PM 26.1 °F 20.5 °F 21.9 °F 84% 29.81 in 6.0 mi Variable 4.6 mph - 0.00 in Snow Light Snow
7:54 PM 26.1 °F 14.5 °F 17.1 °F 69% 29.83 in 10.0 mi West 13.8 mph 20.7 mph 0.00 in   Overcast
8:54 PM 25.0 °F 13.1 °F 17.1 °F 72% 29.86 in 6.0 mi WNW 13.8 mph - 0.00 in Snow Light Snow
9:54 PM 23.0 °F 10.1 °F 14.0 °F 68% 29.88 in 9.0 mi WNW 15.0 mph 25.3 mph 0.00 in Snow Light Snow
10:54 PM 21.9 °F 8.2 °F 10.9 °F 63% 29.90 in 10.0 mi West 16.1 mph 25.3 mph 0.00 in   Partly Cloudy
11:54 PM 21.0 °F 10.6 °F 9.0 °F 60% 29.92 in 10.0 mi West 9.2 mph - N/A   Clear